• In Hungary
  • List of Countries
  • For 7 days
  • Water Temperature
  • Satellite Maps
  • Weather Map
  • News
  • Weather Widgets
  • user-avatar
    Login

    Hourly Weather Hajfa

    Today, 16 August, Wednesday

    Time Temperature Precipitation Wind Pressure Humidity
    00:00 +28°C° 0 mm 2 mps 751 mmHg 78%
    01:00 +28°C° 0 mm 2 mps 750 mmHg 80%
    02:00 +27°C° 0 mm 2 mps 750 mmHg 82%
    03:00 +27°C° 0 mm 2 mps 750 mmHg 83%
    04:00 +27°C° 0 mm 2 mps 750 mmHg 84%
    05:00 +26°C° 0 mm 2 mps 751 mmHg 85%
    06:00 +28°C° 0 mm 2 mps 751 mmHg 78%
    07:00 +29°C° 0 mm 2 mps 751 mmHg 71%
    08:00 +30°C° 0 mm 3 mps 751 mmHg 67%
    09:00 +31°C° 0 mm 3 mps 751 mmHg 60%
    10:00 +34°C° 0 mm 3 mps 751 mmHg 54%
    11:00 +35°C° 0 mm 4 mps 751 mmHg 48%
    12:00 +35°C° 0 mm 4 mps 750 mmHg 47%
    13:00 +36°C° 0 mm 4 mps 750 mmHg 47%
    14:00 +36°C° 0 mm 4 mps 750 mmHg 46%
    15:00 +35°C° 0 mm 4 mps 750 mmHg 48%
    16:00 +34°C° 0 mm 4 mps 750 mmHg 50%
    17:00 +33°C° 0 mm 3 mps 750 mmHg 52%
    18:00 +31°C° 0 mm 3 mps 750 mmHg 57%
    19:00 +30°C° 0 mm 2 mps 750 mmHg 62%
    20:00 +29°C° 0 mm 1 mps 750 mmHg 66%
    21:00 +28°C° 0 mm 1 mps 750 mmHg 69%
    22:00 +28°C° 0 mm 1 mps 750 mmHg 71%
    23:00 +27°C° 0 mm 1 mps 750 mmHg 74%

    Tomorrow, 17 August, Thursday

    Time Temperature Precipitation Wind Pressure Humidity
    00:00 +27°C° 0 mm 1 mps 750 mmHg 75%
    01:00 +27°C° 0 mm 1 mps 750 mmHg 77%
    02:00 +26°C° 0 mm 1 mps 750 mmHg 78%
    03:00 +26°C° 0 mm 1 mps 750 mmHg 79%
    04:00 +26°C° 0 mm 1 mps 750 mmHg 79%
    05:00 +26°C° 0 mm 2 mps 750 mmHg 80%
    06:00 +27°C° 0 mm 2 mps 750 mmHg 71%
    07:00 +29°C° 0 mm 2 mps 750 mmHg 63%
    08:00 +30°C° 0 mm 2 mps 751 mmHg 54%
    09:00 +33°C° 0 mm 3 mps 751 mmHg 49%
    10:00 +34°C° 0 mm 3 mps 751 mmHg 44%
    11:00 +36°C° 0 mm 4 mps 751 mmHg 38%
    12:00 +36°C° 0 mm 4 mps 751 mmHg 40%
    13:00 +36°C° 0 mm 4 mps 751 mmHg 42%
    14:00 +36°C° 0 mm 5 mps 751 mmHg 44%
    15:00 +35°C° 0 mm 4 mps 751 mmHg 48%
    16:00 +35°C° 0 mm 4 mps 751 mmHg 51%
    17:00 +34°C° 0 mm 3 mps 751 mmHg 54%
    18:00 +32°C° 0 mm 2 mps 751 mmHg 58%
    19:00 +31°C° 0 mm 1 mps 751 mmHg 62%
    20:00 +29°C° 0 mm 1 mps 751 mmHg 66%
    21:00 +27°C° 0 mm 0 mps 751 mmHg 67%
    22:00 +27°C° 0 mm 0 mps 752 mmHg 68%
    23:00 +26°C° 0 mm 0 mps 752 mmHg 69%

    Day after tomorrow, 18 August, Friday

    Time Temperature Precipitation Wind Pressure Humidity
    00:00 +26°C° 0 mm 0 mps 752 mmHg 70%
    01:00 +28°C° 0 mm 1 mps 751 mmHg 70%
    02:00 +28°C° 0 mm 1 mps 751 mmHg 70%
    03:00 +27°C° 0 mm 1 mps 752 mmHg 72%
    04:00 +27°C° 0 mm 2 mps 752 mmHg 73%
    05:00 +27°C° 0 mm 2 mps 752 mmHg 74%
    06:00 +28°C° 0 mm 2 mps 752 mmHg 68%
    07:00 +29°C° 0 mm 2 mps 753 mmHg 62%
    08:00 +31°C° 0 mm 3 mps 753 mmHg 56%
    09:00 +33°C° 0 mm 3 mps 753 mmHg 51%
    10:00 +35°C° 0 mm 3 mps 753 mmHg 47%
    11:00 +36°C° 0 mm 4 mps 753 mmHg 42%
    12:00 +36°C° 0 mm 4 mps 753 mmHg 42%
    13:00 +36°C° 0 mm 4 mps 753 mmHg 42%
    14:00 +37°C° 0 mm 4 mps 753 mmHg 42%
    15:00 +36°C° 0 mm 4 mps 753 mmHg 45%
    16:00 +35°C° 0 mm 3 mps 753 mmHg 48%
    17:00 +34°C° 0 mm 3 mps 753 mmHg 51%
    18:00 +33°C° 0 mm 3 mps 753 mmHg 56%
    19:00 +31°C° 0 mm 2 mps 753 mmHg 61%
    20:00 +29°C° 0 mm 2 mps 754 mmHg 66%
    21:00 +29°C° 0 mm 1 mps 754 mmHg 68%
    22:00 +29°C° 0 mm 1 mps 754 mmHg 69%
    23:00 +28°C° 0 mm 1 mps 754 mmHg 71%

    19 August, Saturday

    Time Temperature Precipitation Wind Pressure Humidity
    00:00 +28°C° 0 mm 1 mps 754 mmHg 71%
    01:00 +28°C° 0 mm 1 mps 754 mmHg 70%
    02:00 +28°C° 0 mm 1 mps 754 mmHg 70%
    03:00 +27°C° 0 mm 1 mps 754 mmHg 70%
    04:00 +25°C° 0 mm 0 mps 754 mmHg 70%
    05:00 +25°C° 0 mm 0 mps 754 mmHg 71%
    06:00 +27°C° 0 mm 0 mps 754 mmHg 62%
    07:00 +28°C° 0 mm 0 mps 754 mmHg 53%
    08:00 +32°C° 0 mm 1 mps 755 mmHg 45%
    09:00 +33°C° 0 mm 1 mps 755 mmHg 41%
    10:00 +36°C° 0 mm 2 mps 755 mmHg 37%
    11:00 +37°C° 0 mm 3 mps 755 mmHg 32%
    12:00 +37°C° 0 mm 3 mps 755 mmHg 33%
    13:00 +38°C° 0 mm 4 mps 754 mmHg 34%
    14:00 +39°C° 0 mm 5 mps 754 mmHg 34%
    15:00 +37°C° 0 mm 5 mps 754 mmHg 37%
    16:00 +36°C° 0 mm 4 mps 754 mmHg 39%
    17:00 +35°C° 0 mm 4 mps 754 mmHg 42%
    18:00 +34°C° 0 mm 4 mps 754 mmHg 48%
    19:00 +31°C° 0 mm 3 mps 755 mmHg 54%
    20:00 +30°C° 0 mm 3 mps 755 mmHg 60%
    21:00 +30°C° 0 mm 3 mps 755 mmHg 62%
    22:00 +29°C° 0 mm 3 mps 755 mmHg 64%
    23:00 +29°C° 0 mm 3 mps 755 mmHg 65%

    20 August, Sunday

    Time Temperature Precipitation Wind Pressure Humidity
    00:00 +29°C° 0 mm 3 mps 754 mmHg 65%
    01:00 +29°C° 0 mm 3 mps 754 mmHg 64%
    02:00 +28°C° 0 mm 2 mps 754 mmHg 63%
    03:00 +28°C° 0 mm 2 mps 754 mmHg 64%
    04:00 +28°C° 0 mm 2 mps 754 mmHg 64%
    05:00 +28°C° 0 mm 2 mps 754 mmHg 64%
    06:00 +29°C° 0 mm 2 mps 754 mmHg 58%
    07:00 +31°C° 0 mm 2 mps 755 mmHg 52%
    08:00 +32°C° 0 mm 2 mps 755 mmHg 46%
    09:00 +34°C° 0 mm 3 mps 755 mmHg 43%
    10:00 +35°C° 0 mm 3 mps 755 mmHg 40%
    11:00 +37°C° 0 mm 4 mps 754 mmHg 38%
    12:00 +37°C° 0 mm 4 mps 754 mmHg 38%
    13:00 +37°C° 0 mm 5 mps 754 mmHg 38%
    14:00 +37°C° 0 mm 5 mps 753 mmHg 39%
    15:00 +36°C° 0 mm 5 mps 753 mmHg 41%
    16:00 +35°C° 0 mm 5 mps 753 mmHg 44%
    17:00 +34°C° 0 mm 5 mps 753 mmHg 47%
    18:00 +33°C° 0 mm 4 mps 753 mmHg 52%
    19:00 +32°C° 0 mm 4 mps 754 mmHg 57%
    20:00 +30°C° 0 mm 3 mps 754 mmHg 62%
    21:00 +29°C° 0 mm 3 mps 754 mmHg 63%
    22:00 +29°C° 0 mm 3 mps 754 mmHg 64%
    23:00 +29°C° 0 mm 3 mps 754 mmHg 65%

    21 August, Monday

    Time Temperature Precipitation Wind Pressure Humidity
    00:00 +28°C° 0 mm 2 mps 753 mmHg 66%
    01:00 +28°C° 0 mm 2 mps 753 mmHg 67%
    02:00 +28°C° 0 mm 2 mps 753 mmHg 68%
    03:00 +27°C° 0 mm 2 mps 753 mmHg 69%
    04:00 +27°C° 0 mm 2 mps 753 mmHg 70%
    05:00 +27°C° 0 mm 1 mps 753 mmHg 71%
    06:00 +28°C° 0 mm 1 mps 754 mmHg 65%
    07:00 +29°C° 0 mm 2 mps 754 mmHg 59%
    08:00 +31°C° 0 mm 2 mps 754 mmHg 53%
    09:00 +32°C° 0 mm 2 mps 754 mmHg 48%
    10:00 +34°C° 0 mm 3 mps 754 mmHg 42%
    11:00 +36°C° 0 mm 4 mps 753 mmHg 37%
    12:00 +36°C° 0 mm 4 mps 753 mmHg 37%
    13:00 +36°C° 0 mm 5 mps 753 mmHg 38%
    14:00 +36°C° 0 mm 5 mps 752 mmHg 38%
    15:00 +36°C° 0 mm 5 mps 752 mmHg 42%
    16:00 +35°C° 0 mm 5 mps 752 mmHg 45%
    17:00 +34°C° 0 mm 5 mps 752 mmHg 48%
    18:00 +33°C° 0 mm 4 mps 752 mmHg 53%
    19:00 +32°C° 0 mm 4 mps 753 mmHg 59%
    20:00 +29°C° 0 mm 3 mps 753 mmHg 65%
    21:00 +29°C° 0 mm 3 mps 753 mmHg 67%
    22:00 +29°C° 0 mm 3 mps 753 mmHg 69%
    23:00 +28°C° 0 mm 3 mps 753 mmHg 71%
    Show more